Regional Weather Roundup
Issued by NWS Cleveland, OH

Home | Current Version | Previous Version | Graphics & Text | Print | Product List | Glossary On
Versions: 1 2 3 4 5 6 7 8 9 10 11 12 13 14 15 16 17 18 19 20 21 22 23 24 25 26 27 28 29 30 31 32 33 34 35 36 37 38 39 40 41 42 43 44 45 46 47 48 49 50
000
ASUS41 KCLE 172000
RWRCLE
OHIO REGIONAL WEATHER ROUNDUP
NATIONAL WEATHER SERVICE WILMINGTON, OH
400 PM EDT TUE OCT 17 2017

NOTE: "FAIR" INDICATES FEW OR NO CLOUDS BELOW 12,000 FEET WITH NO
SIGNIFICANT WEATHER AND/OR OBSTRUCTIONS TO VISIBILITY.

OHZ001>008-015>018-024>027-034-035-043-044-172100-
   NORTHWEST OHIO

CITY           SKY/WX    TMP DP  RH WIND       PRES   REMARKS
DEFIANCE       FAIR      67  39  35 SW12G20   30.21F
FINDLAY        FAIR      67  38  34 SW15      30.22F
TOLEDO EXPRESS FAIR      68  42  38 SW17G26   30.19F
TOLEDO EXEC    FAIR      68  41  37 SW16      30.20F
LIMA           FAIR      66  39  37 SW15      30.24S HAZE
$$

OHZ009>014-019>023-028>033-038-089-172100-
   NORTHEAST OHIO

CITY           SKY/WX    TMP DP  RH WIND       PRES   REMARKS
CLE-HOPKINS    FAIR      67  40  37 SW14G23   30.23F
CLE-LAKEFRONT  FAIR      67  39  35 SW17      30.20F
CUY CO. ARPT   MOSUNNY   66  39  37 W12G21    30.22F
LORAIN-ELYRIA  FAIR      66  35  31 SW13G21   30.22F
ASHTABULA      FAIR      64  37  36 SW9G22    30.22S
AKRON-CANTON   FAIR      64  37  36 W16       30.25S
WOOSTER        NOT AVBL
MANSFIELD      FAIR      65  38  36 S15G21    30.25F
YOUNGSTOWN     FAIR      63  38  39 SW12      30.23F
$$

OHZ042-051>053-060>062-070>072-077>081-172100-
  SOUTHWEST OHIO

CITY           SKY/WX    TMP DP  RH WIND       PRES   REMARKS
CINC-COVINGTON FAIR      65  41  41 S9        30.27F
CINC-LUNKEN    FAIR      66  42  41 S6        30.28F
HAMILTON       FAIR      67  41  38 SW5       30.28F
DAYTON         NOT AVBL
WRIGHT-PAT AFB FAIR      65  35  33 SW8       30.27F
DAYTON GENERAL FAIR      64  37  36 W7        30.27F
WILMINGTON     FAIR      64  41  42 SW10      30.27F
$$

OHZ036-037-039>041-045>050-054>059-063>069-073>076-082>088-172100-
  CENTRAL AND SOUTHEAST OHIO

CITY           SKY/WX    TMP DP  RH WIND       PRES   REMARKS
COLUMBUS       FAIR      66  37  34 SW10      30.26F
OSU AIRPORT    FAIR      65  40  39 SW12      30.26F
BOLTON FIELD   SUNNY     64  39  39 SW8       30.27F
RICKENBACK AFB NOT AVBL
NEWARK         FAIR      66  37  34 MISG      30.26F
MARION         FAIR      65  36  34 SW13G18   30.25F
LANCASTER      FAIR      64  42  44 MISG      30.28F
ZANESVILLE     FAIR      65  39  38 VRB7      30.28F
NEW PHILLY     FAIR      65  39  38 VRB7      30.27F
$$




USA.gov is the U.S. government's official web portal to all federal, state and local government web resources and services.